Location: ???????
(55.3754°N, 39.3545°E)
Time: 18:11:05
(UTC+00:00)

Cosmos 1464 Rocket - Pass Details

Date: 14 April 2026
Orbit: 951 x 1001 km, 82.9° (Epoch: 16 May)

Event Time Altitude Azimuth Distance (km) Brightness Sun altitude
Exits shadow 22:16:20 38° 144° (SE) 1,433 4.5 -24.0°
Maximum altitude 22:18:22 53° 92° (E) 1,167 4.4 -23.9°
Drops below altitude 10° 22:24:18 10° 18° (NNE) 2,694 7.4 -23.7°
Sets 22:26:51 0° 14° (NNE) 3,642 8.4 -23.6°
